Location: Arbon
(43.0005°N, 0.7472°E)
Time: 00:49:56
(UTC+00:00)

S-56A Canister/Altair - Pass Details

Date: 06 December 2020
Orbit: 633 x 2499 km, 38.9° (Epoch: 19 January)

Event Time Altitude Azimuth Distance (km) Brightness Sun altitude
Rises 17:22:53 0° 241° (WSW) 6,156 14.2 -10.8°
Reaches altitude 10° 17:27:07 10° 239° (WSW) 5,075 13.2 -11.5°
Maximum altitude 17:41:06 62° 164° (SSE) 2,233 9.8 -13.9°
Enters shadow 17:49:28 18° 90° (E) 3,311 10.1 -15.4°
